Tracking 19564 objects as of 19-Mar-2019
HD Live streaming from Space Station
objects crossing your sky now

ARIANE 40 R/B

Track ARIANE 40 R/B now!
10-day predictions
ARIANE 40 R/B is classified as:


NORAD ID: 21610
Int'l Code: 1991-050F
Perigee: 760.3 km
Apogee: 765.2 km
Inclination: 98.5 °
Period: 99.9 minutes
Semi major axis: 7133 km
RCS: 17.461 m2 (large)
Launch date: July 17, 1991
Source: France (FR)
Launch site: FRENCH GUIANA (FRGUI)

Note: This is a ROCKET BODY
aabbcc
Your satellite tracking list
Your tracking list is empty




NASA's NSSDC Master Catalog

Two Line Element Set (TLE):
1 21610U 91050F   19077.63771169 -.00000005 +00000-0 +12183-4 0  9994
2 21610 098.5186 144.9928 0003417 169.4277 352.9296 14.40864873451918
Source of the keplerian elements: AFSPC